Weather History for CWVU - February, 2013

Change the Weather History Date:

Friday, February 8, 2013

  Actual Average Record
Temperature  
Mean Temperature 15 °F -  
Max Temperature 20 °F - - ()
Min Temperature 10 °F - - ()
Degree Days  
Heating Degree Days 50    
Moisture  
Dew Point 8 °F    
Average Humidity 74    
Maximum Humidity 96    
Minimum Humidity 44    
Precipitation  
Precipitation 0.04 in - - ()
Sea Level Pressure  
Sea Level Pressure 30.50 in    
Wind  
Wind Speed 14 mph ()    
Max Wind Speed 33 mph    
Max Gust Speed 40 mph    
T = Trace of Precipitation, MM = Missing Value Source: Averaged Metar Reports

Daily Weather History Graph

Daily Weather History Graph

Search for Another Location

Airport or City:

Trip Planner

Search our weather history database for the weather conditions in past years. The results will help you decide how hot, cold, wet, or windy it might be!

Date:

Astronomy

Feb. 08, 2013 Rise Set
Actual Time 7:34 AM AST 5:45 PM AST
Civil Twilight 7:04 AM AST 6:15 PM AST
Nautical Twilight 6:30 AM AST 6:49 PM AST
Astronomical Twilight 5:56 AM AST 7:23 PM AST
Moon 6:02 AM AST (2/8) 4:12 PM AST (2/8)
Length of Visible Light 11h 11m
Length of Day
10h 10m
Waning Crescent, 4% of the Moon is Illuminated
Feb 8
Waning Crescent
Feb 10
New
Feb 17
First Quarter
Feb 25
Full
Mar 4
Last Quarter

Hourly Weather History & Observations

Time (AST) Temp. Windchill Dew Point Humidity Pressure Visibility Wind Dir Wind Speed Gust Speed Precip Events Conditions
12:00 AM 12.6 °F -2.7 °F 4.6 °F 71% 30.62 in - North 13.8 mph - N/A   Unknown
1:00 AM 12.0 °F -2.0 °F 3.7 °F 69% 30.63 in - NNW 11.5 mph 18.4 mph N/A   Unknown
2:00 AM 12 °F - 5 °F 63% 30.62 in - NNW 11.5 mph - -  
2:00 AM 12.0 °F -2.0 °F 5.2 °F 74% 30.62 in - NNW 11.5 mph - N/A   Unknown
3:00 AM 11.8 °F -3.0 °F 7.2 °F 81% 30.63 in - North 12.7 mph - N/A   Unknown
4:00 AM 11.8 °F -3.6 °F 7.9 °F 84% 30.61 in - North 13.8 mph - N/A   Unknown
5:00 AM 12.0 °F -0.4 °F 6.4 °F 78% 30.62 in - North 9.2 mph - N/A   Unknown
6:00 AM 12.9 °F -0.9 °F 9.1 °F 85% 30.62 in - ENE 11.5 mph - N/A   Unknown
7:00 AM 12.4 °F -3.5 °F 10.6 °F 92% 30.60 in - East 15.0 mph - N/A   Unknown
8:00 AM 11 °F - 10 °F 93% 30.61 in - East 18.4 mph - -  
8:00 AM 11.5 °F -6.3 °F 9.9 °F 93% 30.61 in - East 18.4 mph - N/A   Unknown
9:00 AM 11.8 °F -5.3 °F 9.3 °F 90% 30.61 in - East 17.3 mph - N/A   Unknown
10:00 AM 12.6 °F -2.7 °F 6.6 °F 77% 30.59 in - ENE 13.8 mph - N/A   Unknown
11:00 AM 13.3 °F -1.8 °F 5.7 °F 72% 30.60 in - East 13.8 mph - N/A   Unknown
12:00 PM 14.2 °F 0.7 °F 4.3 °F 65% 30.58 in - East 11.5 mph - N/A   Unknown
1:00 PM 16.0 °F 1.1 °F 3.9 °F 59% 30.55 in - East 15.0 mph - N/A   Unknown
2:00 PM 17 °F - 5 °F 44% 30.52 in - East 13.8 mph - -  
2:00 PM 17.4 °F 3.5 °F 4.6 °F 57% 30.52 in - East 13.8 mph - N/A   Unknown
3:00 PM 19.8 °F 5.9 °F 8.4 °F 61% 30.48 in - ENE 15.0 mph - N/A   Unknown
4:00 PM 19.9 °F 5.2 °F 9.5 °F 64% 30.46 in - ENE 17.3 mph 23.0 mph N/A   Unknown
5:00 PM 19.0 °F 4.0 °F 9.1 °F 65% 30.42 in - ENE 17.3 mph - N/A   Unknown
6:00 PM 18.0 °F 1.3 °F 8.6 °F 67% 30.38 in - East 20.7 mph - N/A   Unknown
7:00 PM 17.8 °F 0.3 °F 11.3 °F 76% 30.35 in - ENE 23.0 mph 28.8 mph N/A   Unknown
8:00 PM 18 °F - 12 °F 66% 30.29 in - ENE 26.5 mph - -  
8:00 PM 18.0 °F -0.5 °F 11.7 °F 76% 30.29 in - ENE 26.5 mph 33.4 mph N/A   Unknown
9:00 PM 18.3 °F -0.6 °F 11.8 °F 76% 30.23 in - ENE 28.8 mph 40.3 mph N/A   Unknown
10:00 PM 17.8 °F -1.1 °F 14.0 °F 85% 30.19 in - ENE 27.6 mph 34.5 mph N/A   Unknown
11:00 PM 18.5 °F -1.5 °F 17.4 °F 96% 30.09 in - NE 33.4 mph 40.3 mph N/A   Unknown